User: anonymous   Login
Location: Caltech
(34.1382°N, 118.1253°W)
Time: 19:13:59
(UTC-07:00)
Language:

Spot 4 Rocket - Orbit

View from above orbital plane
View from above orbital plane
View from above satellite
View from above satellite

Ground track
Ground track

The orbit data is extracted from the following two-line orbital elements,

1 25261U 98017B   15239.88136013  .00000154  00000-0  71408-4 0  9995
2 25261 098.4607 187.5220 0002160 235.5792 187.2042 14.33341877910565
Epoch (UTC): 27 August 2015 21:09:09
Eccentricity: 0.0002160
inclination: 98.4607°
perigee height: 779 km
apogee height: 782 km
right ascension of ascending node: 187.5220°
argument of perigee: 235.5792°
revolutions per day: 14.33341877
mean anomaly at epoch: 187.2042°
orbit number at epoch: 91056

The dashed part of the orbit path shows where the satellite is in the earth's shadow,  

DLR